Location: Brno
(49.2000°N, 16.6330°E)
Time: 02:18:41
(UTC+01:00)

RESURS DK-1 - Visible Passes

Search period start: 12 February 2016 00:00
Search period end: 22 February 2016 00:00
Orbit: 558 x 564 km, 69.9° (Epoch: 11 February)

Date Brightness Start Highest point End Pass type
(mag) Time Alt. Az. Time Alt. Az. Time Alt. Az.
12 Feb 2.4 18:02:14 10° NNW 18:06:22 58° ENE 18:10:28 10° SE visible
12 Feb 5.2 19:41:16 10° WNW 19:44:01 17° WSW 19:46:46 10° SSW visible
13 Feb 2.3 18:01:11 10° NNW 18:05:23 76° ENE 18:09:33 10° SE visible
13 Feb 5.5 19:40:54 10° WNW 19:42:52 13° WSW 19:44:49 10° SW visible
14 Feb 2.5 18:00:11 10° NNW 18:04:22 82° WSW 18:08:31 10° SSE visible
15 Feb 3.0 17:59:12 10° NW 18:03:20 61° WSW 18:07:25 10° SSE visible
16 Feb 3.7 17:58:16 10° NW 18:02:16 46° WSW 18:06:15 10° S visible
17 Feb 4.3 17:57:23 10° NW 18:01:11 34° WSW 18:04:58 10° S visible
18 Feb 5.0 17:56:35 10° NW 18:00:04 26° WSW 18:03:33 10° SSW visible
19 Feb 5.5 17:55:52 10° WNW 17:58:56 20° WSW 18:02:00 10° SSW visible
20 Feb 6.4 06:22:57 10° ESE 06:24:12 11° E 06:25:28 10° E visible
20 Feb 5.8 17:55:19 10° WNW 17:57:47 15° WSW 18:00:15 10° SW visible
21 Feb 5.9 06:20:39 10° SE 06:23:01 15° ESE 06:25:25 10° ENE visible
21 Feb 6.3 17:55:12 10° W 17:56:36 12° WSW 17:58:01 10° WSW visible
